Regional Weather Roundup
Issued by NWS

Home | Current Version | Previous Version | Graphics & Text | Print | Product List | Glossary On
Versions: 1 2 3 4 5 6 7 8 9 10 11 12 13 14 15 16 17 18 19 20 21 22 23 24 25 26 27 28 29 30 31 32 33 34 35 36 37 38 39 40 41 42 43 44 45 46 47 48 49 50
000
ASUS45 KCYS 072210
RWRWY

WYOMING REGIONAL WEATHER ROUNDUP
NATIONAL WEATHER SERVICE CHEYENNE WY
400 PM MDT TUE JUL 07 2015

NOTE:  "FAIR" INDICATES FEW OR NO CLOUDS BELOW 12,000 FEET
WITH NO SIGNIFICANT WEATHER AND/OR OBSTRUCTIONS TO VISIBILITY.

WYZ001-072300-
YELLOWSTONE NATIONAL PARK

CITY           SKY/WX    TMP DP  RH WIND       PRES   REMARKS
LK YELLOWSTONE   N/A     66  43  43 SE7       30.22F
W YELLOWSTONE  NOT AVBL

$$
WYZ002>013-054>058-071-098>099-072300-
NORTHERN WYOMING

CITY           SKY/WX    TMP DP  RH WIND       PRES   REMARKS
JACKSON        FAIR      73  45  35 E12       30.10F
CODY           CLOUDY    64  50  59 W8        30.09R
GREYBULL       FAIR      87  46  24 N22G31    29.95F
WORLAND        FAIR      82  47  29 N6        29.98F
SHERIDAN       LGT RAIN  66  52  60 SW13G23   30.04S
BUFFALO        PTSUNNY   68  52  56 W9        30.10F
GILLETTE       FAIR      70  54  56 S14       30.04S
HULETT         FAIR      79  48  34 SE5       30.04F
NEWCASTLE      FAIR      73  50  43 SE9       30.07F

$$
WYZ014>020-022>026-101>103-072300-
CENTRAL WYOMING

CITY           SKY/WX    TMP DP  RH WIND       PRES   REMARKS
BIG PINEY      FAIR      68  46  45 W6        30.16F
PINEDALE       FAIR      68  45  42 E13       30.18S
DUBOIS         CLOUDY    63  43  48 S5        30.21R
LANDER         FAIR      76  49  38 N13       30.07F
RIVERTON       FAIR      76  47  35 N9        30.06F
CASPER         CLOUDY    69  53  56 VRB7      30.09S
DOUGLAS        CLOUDY    75  52  44 SE10G17   30.07F HAZE

$$
WYZ021-027>030-104>119-072300-
SOUTHERN WYOMING

CITY           SKY/WX    TMP DP  RH WIND       PRES   REMARKS
EVANSTON       PTSUNNY   67  51  56 VRB3      30.18F
KEMMERER       FAIR      61  52  72 N3        30.18F
FORT BRIDGER   TSTM      57  55  94 NE3       30.22S
ROCK SPRINGS   FAIR      68  54  60 S10       30.12F
DIXON          TSTM      55  53  92 CALM      30.20R
RAWLINS        TSTM      57  53  86 N12       30.17R FOG
SARATOGA       CLOUDY    61  54  77 S12       30.16F
LARAMIE        CLOUDY    59  54  83 SE16      30.20S
CHEYENNE       CLOUDY    64  52  64 S13G21    30.17S HAZE
TORRINGTON     FAIR      75  55  49 SE16      30.07F
PINE BLUFFS    CLOUDY    66  50  55 S12G20    30.14F

$$


USA.gov is the U.S. government's official web portal to all federal, state and local government web resources and services.